Date,TemperatureHighF,TemperatureAvgF,TemperatureLowF,DewpointHighF,DewpointAvgF,DewpointLowF,HumidityHigh,HumidityAvg,HumidityLow,PressureMaxIn,PressureMinIn,WindSpeedMaxMPH,WindSpeedAvgMPH,GustSpeedMaxMPH,PrecipitationSumIn
2014-1-1,40,26,23,31,-1,-100,91,63,70,30.21,29.94,11,-216,16,0.00
2014-1-2,30,13,12,27,-21,-100,94,61,83,30.16,29.80,17,-312,19,0.00
2014-1-7,10,6,-3,4,-1,-9,76,73,69,30.46,30.34,15,7,17,0.00
2014-1-8,28,14,8,23,-15,-100,91,61,74,30.44,30.31,10,-247,14,0.00
2014-1-9,32,18,12,31,-12,-100,97,66,85,30.45,30.20,0,-291,1,0.00
2014-1-10,43,29,32,43,6,-100,99,75,94,30.19,29.62,11,-225,15,0.02
2014-1-11,45,14,35,44,-53,-100,100,33,89,29.71,29.40,18,-662,21,0.00
2014-1-12,43,22,29,37,-22,-100,92,49,76,29.98,29.72,23,-411,25,0.00
2014-1-13,47,29,38,45,-7,-100,98,59,78,29.76,29.58,26,-336,26,0.00
2014-1-14,56,12,27,37,-55,-100,91,27,43,29.86,29.64,20,-644,25,0.04
2014-1-15,27,22,18,21,17,12,90,78,70,30.04,29.86,12,2,19,0.00
2014-1-16,29,23,15,26,20,11,91,86,77,29.99,29.65,22,10,27,0.00
2014-1-17,30,17,4,28,13,0,94,83,66,30.01,29.68,12,1,17,0.00
2014-1-18,25,18,11,24,15,8,94,88,75,29.99,29.72,14,6,20,0.00
2014-1-19,31,24,16,25,21,14,95,85,71,29.93,29.66,17,5,27,0.00
2014-1-20,39,34,30,30,28,24,87,78,68,29.85,29.62,5,0,15,0.00
2014-1-21,32,13,0,29,5,-5,95,74,49,30.17,29.74,25,5,29,0.00
2014-1-22,16,4,-6,14,0,-10,91,82,69,30.16,29.97,15,5,20,0.00
2014-1-23,7,1,-4,2,-5,-9,87,76,67,30.59,30.08,1,0,13,0.00
2014-1-24,20,5,-10,16,-1,-13,90,76,63,30.60,29.78,26,8,35,0.00
2014-1-25,31,19,7,26,14,-2,94,79,63,29.86,29.49,27,8,36,0.00
2014-1-26,43,25,2,32,16,-4,82,70,60,29.86,29.49,20,5,45,0.00
2014-1-27,29,6,-5,26,-2,-11,90,69,44,30.41,29.60,16,2,36,0.00
2014-1-28,-2,-8,-12,-10,-14,-16,83,78,69,30.46,30.41,0,0,2,0.00
2014-1-29,25,16,10,8,5,1,74,62,49,30.31,30.20,11,2,17,0.00
2014-1-30,29,21,12,16,9,3,68,60,50,30.20,29.82,24,11,29,0.00
2014-1-31,34,31,28,29,23,16,93,75,61,30.08,29.93,10,2,12,0.00
2014-2-1,41,36,30,40,33,29,98,90,73,30.00,29.75,15,4,21,0.44
2014-2-2,33,27,22,32,25,19,97,91,87,30.23,29.95,8,3,11,0.17
2014-2-3,28,21,14,20,16,11,89,82,70,30.38,30.18,11,3,13,0.00
2014-2-4,28,22,17,22,18,14,94,86,76,30.40,29.88,12,5,18,0.00
2014-2-5,25,23,19,24,20,16,95,89,82,30.41,29.76,11,2,15,0.00
2014-2-6,19,11,-3,15,7,-7,91,82,70,30.49,30.39,12,4,17,0.00
2014-2-7,13,1,-12,2,-5,-15,88,76,60,30.52,30.40,6,1,9,0.00
2014-2-8,23,15,3,21,10,-2,90,79,64,30.41,30.15,9,2,12,0.00
2014-2-9,24,20,9,23,16,5,95,85,70,30.27,30.09,13,4,17,0.00
2014-2-10,17,6,-2,7,1,-6,91,81,64,30.45,30.27,6,1,6,0.00
2014-2-11,17,2,-10,7,-3,-15,87,78,65,30.55,30.43,4,1,7,0.01
2014-2-12,28,12,-2,15,4,-6,87,74,56,30.44,30.05,7,2,8,0.00
2014-2-13,34,22,9,20,11,-100,81,65,51,30.04,29.64,9,-12,10,0.01
2014-2-14,30,21,15,25,17,11,92,85,69,29.86,29.62,18,2,26,0.00
2014-2-15,26,18,13,19,13,8,92,83,66,30.14,29.86,8,1,9,0.00
2014-2-16,27,23,17,22,19,14,93,86,73,30.29,29.96,12,2,17,0.00
2014-2-17,34,24,11,33,21,9,96,87,77,30.31,29.70,22,9,27,0.29
2014-2-18,44,38,28,32,30,25,88,74,60,30.09,29.76,12,6,21,0.20
2014-2-19,47,39,33,36,32,30,86,77,62,30.05,29.68,16,4,22,0.00
2014-2-20,60,45,35,55,42,30,97,87,79,29.98,29.41,24,12,37,0.22
2014-2-21,44,37,34,33,27,23,87,70,43,29.91,29.59,20,8,29,0.00
2014-2-22,56,41,32,40,31,25,89,69,47,30.04,29.89,17,4,20,0.00
2014-2-23,34,31,23,32,24,16,95,78,50,30.21,30.00,9,2,11,0.00
2014-2-24,31,24,19,17,14,12,80,66,47,30.30,30.19,14,6,19,0.00
2014-2-25,28,24,20,19,17,13,88,75,66,30.21,30.12,12,4,15,0.00
2014-2-26,21,14,6,13,4,0,78,65,47,30.25,29.89,11,4,17,0.00
2014-2-27,23,16,7,11,4,0,75,59,38,30.19,29.77,22,5,28,0.00
2014-2-28,37,20,6,15,8,1,79,60,35,30.26,30.07,16,7,18,0.00
2014-3-1,48,36,27,33,25,13,87,66,55,30.19,30.07,9,3,15,0.00
2014-3-2,27,21,15,24,18,11,93,88,81,30.28,30.14,9,4,13,0.00
2014-3-3,18,11,5,10,3,-2,87,69,50,30.45,30.26,15,4,17,0.00
2014-3-4,35,16,5,17,7,-1,83,71,47,30.41,30.20,7,1,8,0.01
2014-3-5,32,23,16,21,16,11,85,73,56,30.37,30.21,12,5,16,0.00
2014-3-6,44,28,18,28,20,13,87,73,52,30.36,30.11,9,4,13,0.00
2014-3-7,57,39,25,39,30,22,91,73,47,30.11,29.93,7,2,10,0.00
2014-3-8,42,35,32,34,32,30,93,87,74,30.02,29.94,2,0,4,0.00
2014-3-10,53,48,44,41,39,38,77,72,62,29.74,29.72,2,0,3,0.00
2014-3-11,72,55,41,49,44,38,92,70,43,29.72,29.54,9,2,13,0.00
2014-3-12,49,34,20,47,31,13,98,89,75,30.04,29.24,22,6,30,0.01
2014-3-13,34,25,15,25,18,12,88,73,58,30.23,30.03,14,4,19,0.01
2014-3-14,62,46,33,41,33,24,74,61,41,30.05,29.72,21,10,31,0.00
2014-3-15,57,44,35,36,30,-100,87,63,34,30.09,29.89,15,-6,17,0.00
2014-3-16,36,28,22,30,20,12,82,70,59,30.16,30.01,18,10,28,0.00
2014-3-17,42,27,19,28,19,12,86,72,59,30.03,29.84,12,4,17,0.00
2014-3-18,56,40,26,42,33,22,87,76,58,29.94,29.76,20,8,22,0.00
2014-3-19,51,44,35,48,40,30,91,85,75,30.02,29.71,24,14,34,0.00
2014-3-20,51,41,28,36,30,23,85,67,48,30.10,29.97,16,6,23,0.00
2014-3-21,70,51,35,39,35,31,87,59,29,30.02,29.76,15,6,22,0.00
2014-3-22,54,43,34,39,33,30,86,69,52,30.13,29.75,13,3,23,0.00
2014-3-25,28,26,25,18,14,9,68,59,51,30.30,30.23,0,0,0,0.00
2014-3-26,57,32,15,22,13,8,79,48,22,30.47,30.27,0,0,5,0.00
2014-3-27,57,40,32,44,29,15,99,68,43,30.28,29.80,7,0,10,0.08
2014-3-28,50,45,40,50,45,39,100,99,98,30.19,29.74,3,0,8,0.00
2014-3-29,39,37,35,38,36,34,99,97,91,30.26,30.07,2,0,4,0.00
2014-3-30,66,42,27,61,36,27,100,81,37,30.34,30.20,1,0,5,0.00
2014-3-31,68,51,32,41,35,30,91,60,33,30.23,29.96,12,2,13,0.04
2014-4-1,68,58,51,47,39,32,71,50,28,30.13,29.88,13,4,25,0.04
2014-4-2,57,45,42,51,35,-100,100,81,67,30.19,30.05,6,-62,8,0.13
2014-4-3,94,12,-90,94,-63,-100,100,24,80,30.08,29.71,12,-748,13,0.00
2014-4-4,68,14,-90,68,-38,-100,100,42,71,30.12,29.54,24,-496,28,0.00
2014-4-5,56,32,34,37,-7,-100,87,44,45,30.31,30.13,7,-301,21,0.00
2014-4-6,60,45,29,38,34,27,94,67,38,30.26,30.01,7,2,9,0.00
2014-4-7,51,46,41,50,41,36,98,84,66,30.01,29.46,10,2,19,0.81
2014-4-8,60,47,38,50,43,37,98,87,67,29.94,29.67,8,1,11,0.13
2014-4-9,65,50,36,43,35,-100,89,64,37,30.12,29.94,6,-10,11,0.00
2014-4-10,78,60,44,55,44,36,85,58,36,30.07,29.84,10,3,20,0.06
2014-4-11,73,61,52,55,48,36,97,67,27,30.07,29.96,6,1,10,0.03
2014-4-15,40,32,26,22,20,17,85,62,45,30.34,30.24,5,1,15,0.05
2014-4-16,52,38,25,29,24,20,86,59,35,30.48,30.30,12,2,14,0.00
2014-4-17,70,52,33,42,34,26,75,53,29,30.37,30.29,6,2,12,0.00
2014-4-18,76,56,38,48,42,36,94,63,32,30.35,30.25,5,1,9,0.00
2014-4-19,70,55,38,50,41,35,90,62,36,30.39,30.28,9,2,12,0.00
2014-4-20,79,60,41,48,40,34,80,53,26,30.31,30.13,6,1,10,0.00
2014-4-21,77,61,44,56,49,41,93,67,42,30.13,29.89,4,1,7,0.00
2014-4-22,62,56,43,57,44,33,95,66,39,30.04,29.82,13,3,18,0.00
2014-4-23,65,49,35,40,34,29,79,60,34,30.19,30.04,5,1,8,0.00
2014-4-24,69,57,48,41,37,33,67,49,34,30.14,29.77,12,4,16,0.00
2014-4-25,58,57,57,38,36,36,49,46,45,29.77,29.70,4,2,10,0.00
2014-4-27,66,64,62,49,46,45,54,53,52,29.90,29.86,10,5,14,0.00
2014-4-28,73,61,50,63,53,44,95,77,55,29.89,29.60,13,4,18,0.88
2014-4-29,76,61,49,60,52,45,99,77,35,29.82,29.56,9,3,19,0.07
2014-4-30,67,54,43,55,49,38,98,83,53,29.95,29.78,6,2,13,0.00
2014-5-1,57,49,40,43,40,38,90,72,53,29.97,29.90,7,2,13,0.01
2014-5-2,57,50,44,44,42,40,90,76,61,29.97,29.92,4,1,8,0.01
2014-5-3,72,57,45,46,40,34,86,58,26,29.97,29.84,13,2,23,0.00
2014-5-4,72,60,49,46,40,28,77,51,36,30.08,29.95,8,2,12,0.00
2014-5-5,71,56,47,50,36,-100,65,55,44,30.07,29.86,6,2,10,0.00
2014-5-6,77,57,48,55,43,40,74,60,41,30.02,29.94,7,3,12,0.02
2014-12-4,34,34,33,32,32,31,92,91,90,30.38,30.31,0,0,0,0.01
2014-12-5,42,38,34,42,37,32,99,97,90,30.32,30.13,0,0,0,1.08
2014-12-6,41,36,29,41,35,27,99,93,83,30.64,30.13,0,0,0,0.30
2014-12-7,40,29,24,32,26,22,95,89,73,30.68,30.59,0,0,0,0.00
2014-12-8,42,39,39,39,37,36,98,88,78,30.22,0.00,0,0,0,0.07
2014-12-9,42,36,32,42,34,32,99,93,84,30.33,30.12,11,1,13,0.05
2014-12-10,36,34,32,32,31,30,91,89,84,30.34,30.33,6,2,9,0.00
2014-12-13,46,43,39,40,38,35,88,79,78,30.34,30.21,5,1,8,0.00
2014-12-14,49,44,41,45,41,38,96,91,83,30.23,30.14,5,0,5,0.00
2014-12-15,44,43,40,42,40,38,97,91,82,30.14,29.77,6,0,9,0.08
2014-12-16,46,40,31,46,39,31,99,99,96,30.18,29.72,15,5,22,0.13
2014-12-17,31,26,23,31,24,20,99,91,85,30.36,30.19,10,3,16,0.00
2014-12-18,27,26,24,24,22,20,90,86,84,30.38,30.29,3,0,4,0.00
2014-12-19,29,26,18,26,23,17,95,88,83,30.39,30.32,1,0,7,0.00
2014-12-20,32,29,23,27,25,22,95,87,75,30.37,30.31,1,0,2,0.00
2014-12-21,37,27,19,31,25,18,97,90,78,30.38,30.15,2,0,5,0.00
2014-12-22,46,37,27,43,34,25,93,88,83,30.15,29.72,5,0,9,0.01
2014-12-23,55,50,45,52,48,43,100,95,85,29.84,29.70,3,0,7,0.14
2014-12-24,47,40,35,47,40,35,100,100,99,29.75,29.46,11,2,18,0.38
2014-12-25,41,35,31,35,33,30,99,90,76,30.20,29.76,16,2,20,0.01
2014-12-26,54,40,31,45,37,30,97,88,70,30.25,30.16,8,0,15,0.01
2014-12-27,47,43,36,46,41,35,100,95,82,30.21,30.09,9,1,14,0.35
2014-12-28,34,30,23,34,28,22,97,92,86,30.31,30.12,4,1,10,0.00
2014-12-29,35,28,20,27,24,19,97,85,71,30.47,30.29,4,0,6,0.00
2014-12-30,30,24,16,24,18,9,93,79,65,30.67,30.45,5,1,11,0.00
2014-12-31,25,17,10,10,7,4,79,65,45,30.68,30.38,11,2,15,0.00
2015-1-1,36,26,19,21,16,10,75,66,50,30.38,30.15,13,4,19,0.00
2015-1-2,44,32,24,32,25,20,90,76,53,30.40,30.25,4,0,9,0.00